Location: Chervonnoye
(48.6000°N, 34.4000°E)
Time: 20:01:42
(UTC+00:00)

RS-44 - Pass Details

Date: 08 December 2021
Orbit: 1175 x 1510 km, 82.5° (Epoch: 19 January)

Event Time Altitude Azimuth Distance (km) Brightness Sun altitude
Rises 03:13:23 0° 351° (N) 4,177 ? -20.2°
Reaches altitude 10° 03:16:04 10° 354° (N) 3,242 ? -19.8°
Maximum altitude 03:23:41 67° 77° (ENE) 1,420 ? -18.5°
Drops below altitude 10° 03:31:52 10° 160° (SSE) 3,467 ? -17.2°
Sets 03:34:48 0° 163° (SSE) 4,483 ? -16.8°
